Location: Newark
(6.1731°S, 35.7419°E)
Time: 19:06:38
(UTC+00:00)

deb Explorer IX - Visible Passes

Search period start: 21 February 2020 00:00
Search period end: 02 March 2020 00:00
Orbit: 549 x 1099 km, 38.8° (Epoch: 20 February)

Date Brightness Start Highest point End Pass type
(mag) Time Alt. Az. Time Alt. Az. Time Alt. Az.
21 Feb ? 02:14:15 10° S 02:17:40 14° SSE 02:20:52 10° ESE visible
21 Feb ? 16:42:11 10° NW 16:47:42 64° NE 16:54:10 10° ESE visible
21 Feb ? 18:30:11 10° W 18:35:14 26° SW 18:36:27 24° SSW visible
22 Feb ? 01:51:31 10° S 01:55:16 15° SSE 01:58:48 10° ESE visible
22 Feb ? 16:19:57 10° NW 16:25:18 65° NE 16:31:37 10° ESE visible
22 Feb ? 18:07:59 10° W 18:12:49 24° SSW 18:16:47 15° S visible
23 Feb ? 01:28:48 10° S 01:32:52 16° SSE 01:36:40 10° ESE visible
23 Feb ? 03:14:14 10° SW 03:20:47 75° SE 03:26:22 10° NE visible
23 Feb ? 17:45:48 10° W 17:50:25 23° SSW 17:55:32 10° SSE visible
24 Feb ? 01:06:43 11° S 01:10:27 17° SSE 01:14:31 10° ESE visible
24 Feb ? 02:51:39 10° SW 02:58:22 78° SE 03:04:07 10° NE visible
24 Feb ? 17:23:39 10° W 17:28:01 22° SSW 17:32:53 10° SSE visible
25 Feb ? 00:47:10 18° SSE 00:48:01 18° SSE 00:52:20 10° ESE visible
25 Feb ? 02:29:04 10° SW 02:35:56 80° SE 02:41:51 10° NE visible
25 Feb ? 17:01:31 10° W 17:05:38 21° SSW 17:10:13 10° SSE visible
26 Feb ? 00:27:42 16° SE 00:27:42 16° SE 00:30:06 10° ESE visible
26 Feb ? 02:09:10 24° SW 02:13:30 82° SE 02:19:35 10° NE visible
26 Feb ? 16:39:24 10° WSW 16:43:17 19° SSW 16:47:34 10° SSE visible
27 Feb ? 01:49:38 59° SW 01:51:02 83° SE 01:57:17 10° NE visible
27 Feb ? 16:17:19 10° WSW 16:20:55 18° SSW 16:24:54 10° S visible
28 Feb ? 01:29:57 59° ENE 01:29:57 59° ENE 01:34:58 10° NE visible
28 Feb ? 03:11:24 10° W 03:15:33 17° NW 03:19:24 10° N visible
29 Feb ? 01:10:05 26° NE 01:10:05 26° NE 01:12:38 10° NE visible
29 Feb ? 02:51:31 16° WNW 02:53:07 17° NW 02:57:05 10° N visible
01 Mar ? 00:50:01 11° NE 00:50:01 11° NE 00:50:17 10° NE visible
01 Mar ? 02:31:26 17° NW 02:31:26 17° NW 02:34:45 10° N visible
